GW2297 Weather Reports


time (UTC)temp
C
wind
direction
speed
KPH
gust
KPH
rain 1hr
cm
rain 24hr
cm
rain mn
cm
humidity
%
barometer
mb
20260504044543 13 0 0.0 0.0 0.00 0.00 0.00 81 1019.2
20260504043046 14 0 0.0 0.0 0.00 0.00 0.00 80 1019.2
20260504041546 14 0 0.0 0.0 0.00 0.00 0.00 78 1019.3
20260504040051 14 0 0.0 0.0 0.00 0.00 0.00 77 1019.4
20260504034547 15 0 0.0 0.0 0.00 0.00 0.00 77 1019.4
20260504033048 15 0 0.0 0.0 0.00 0.00 0.00 76 1019.5
20260504031553 15 0 0.0 0.0 0.00 0.00 0.00 74 1019.3
20260504030050 15 0 0.0 6.4 0.00 0.00 0.00 73 1019.2
20260504024546 15 340 0.0 1.6 0.00 0.00 0.00 71 1019.1
20260504023046 16 0 0.0 0.0 0.00 0.00 0.00 69 1019.0
20260504021550 16 0 0.0 0.0 0.00 0.00 0.00 67 1018.9
20260504020106 16 0 0.0 0.0 0.00 0.00 0.00 66 1018.9
20260504014545 17 0 0.0 0.0 0.00 0.00 0.00 64 1018.7
20260504013048 17 0 0.0 0.0 0.00 0.00 0.00 61 1018.7
20260504011546 18 0 0.0 0.0 0.00 0.00 0.00 57 1018.5
20260504010054 19 0 0.0 0.0 0.00 0.00 0.00 54 1018.3
20260504004549 20 0 0.0 0.0 0.00 0.00 0.00 52 1018.2
20260504003052 21 0 0.0 3.2 0.00 0.00 0.00 49 1018.1
20260504001553 22 0 0.0 4.8 0.00 0.00 0.00 44 1017.9
20260504000051 22 0 1.6 6.4 0.00 0.00 0.00 43 1018.1
20260503234602 23 296 0.0 4.8 0.00 0.00 0.00 40 1018.0
20260503233053 23 291 1.6 8.0 0.00 0.00 0.00 39 1018.1
20260503231547 23 303 1.6 6.4 0.00 0.00 0.00 38 1018.2
20260503230048 24 0 0.0 8.0 0.00 0.00 0.00 38 1018.1
20260503224541 23 22 1.6 11.3 0.00 0.00 0.00 37 1018.2
20260503223047 24 308 3.2 12.9 0.00 0.00 0.00 39 1018.3
20260503221555 24 261 1.6 9.7 0.00 0.00 0.00 38 1018.3
20260503220046 24 293 4.8 12.9 0.00 0.00 0.00 38 1018.3
20260503214539 24 0 4.8 12.9 0.00 0.00 0.00 39 1018.5
20260503213044 24 235 3.2 12.9 0.00 0.00 0.00 38 1018.5
20260503211549 24 258 6.4 16.1 0.00 0.00 0.00 37 1018.7
20260503210044 24 270 3.2 11.3 0.00 0.00 0.00 38 1018.7
20260503204552 24 278 4.8 12.9 0.00 0.00 0.00 36 1019.0
20260503203056 23 294 3.2 11.3 0.00 0.00 0.00 37 1019.2
20260503201551 23 259 3.2 24.1 0.00 0.00 0.00 40 1019.5
20260503200054 23 99 1.6 14.5 0.00 0.00 0.00 37 1019.8
20260503194554 23 255 6.4 14.5 0.00 0.00 0.00 37 1020.1
20260503193043 23 296 4.8 11.3 0.00 0.00 0.00 39 1020.5
20260503191553 23 284 4.8 12.9 0.00 0.00 0.00 37 1020.5
20260503190049 23 332 6.4 17.7 0.00 0.00 0.00 37 1020.6
20260503184548 22 172 1.6 9.7 0.00 0.00 0.00 40 1021.0
20260503183044 22 64 4.8 16.1 0.00 0.00 0.00 39 1021.2
20260503181544 22 283 6.4 19.3 0.00 0.00 0.00 40 1021.4
20260503180055 22 304 1.6 12.9 0.00 0.00 0.00 43 1021.6
20260503174549 22 322 4.8 12.9 0.00 0.00 0.00 39 1021.8
20260503173046 22 275 4.8 20.9 0.00 0.00 0.00 38 1022.0
20260503171547 21 351 6.4 16.1 0.00 0.00 0.00 41 1022.1
20260503081550 9 0 0.0 0.0 0.00 0.41 0.00 87 1019.6
20260503071602 10 0 0.0 0.0 0.00 0.71 0.00 83 1019.3
20260503060108 11 0 0.0 0.0 0.00 1.02 0.00 79 1019.3
20260503054554 11 0 0.0 1.6 0.00 1.27 0.00 78 1019.2
20260503053042 12 0 0.0 1.6 0.00 1.27 0.00 77 1019.1